{"data":{"norad_id":66711,"intl_designator":"2025-276AX","name":"FLOCK 4H-8","alt_names":[],"object_type":"PAYLOAD","status":"ACTIVE","operator":null,"country":"US","launch_date":"2025-11-28","launch_site_code":"AFWTR","launch_vehicle":null,"mission":null,"orbit_class":"UNKNOWN","rcs_meters":null,"size_class":null,"mass_kg":null,"dimensions":null,"purposes":["earth_obs"],"wikipedia_slug":null,"has_3d_model":false,"image_url":null,"decayed_at":null,"tle_current":{"epoch":"2026-09-20T00:05:36.324096Z","epoch_age_seconds":61186,"freshness":"FRESH","line1":"1 66711U 25276AX  26263.00389264  .00004664  00000+0  21202-3 0  9993","line2":"2 66711  97.4150 335.1934 0004385  59.9040 300.2630 15.21226330 44832","mean_motion":15.2122633,"eccentricity":0.0004385,"inclination_deg":97.415,"raan_deg":335.1934,"arg_perigee_deg":59.904,"mean_anomaly_deg":300.263,"bstar":0.00021202,"rev_number":4483,"period_min":94.660470411395,"perigee_km":499.12345571499,"apogee_km":505.15745904512,"semimajor_km":6880.2774573801,"source":"CELESTRAK","updated_at":"2026-09-20T09:00:34.749132Z"}}}